TimeEST,TemperatureF,Dew PointF,Humidity,Sea Level PressureIn,VisibilityMPH,Wind Direction,Wind SpeedMPH,Gust SpeedMPH,PrecipitationIn,Events,Conditions,WindDirDegrees,DateUTC
12:53 AM,23.0,18.0,81,30.12,10.0,Calm,Calm,-,N/A,,Clear,0,2012-02-10 05:53:00
1:53 AM,24.1,18.0,77,30.11,10.0,Calm,Calm,-,N/A,,Clear,0,2012-02-10 06:53:00
2:53 AM,24.1,18.0,77,30.11,10.0,Calm,Calm,-,N/A,,Clear,0,2012-02-10 07:53:00
3:53 AM,26.1,19.9,78,30.09,10.0,SSE,3.5,-,N/A,,Clear,160,2012-02-10 08:53:00
4:53 AM,25.0,21.0,85,30.09,10.0,Calm,Calm,-,N/A,,Mostly Cloudy,0,2012-02-10 09:53:00
5:53 AM,25.0,19.9,81,30.09,10.0,Calm,Calm,-,N/A,,Partly Cloudy,0,2012-02-10 10:53:00
6:53 AM,30.0,19.9,66,30.10,10.0,Variable,3.5,-,N/A,,Clear,0,2012-02-10 11:53:00
7:53 AM,32.0,21.0,64,30.11,10.0,SSW,3.5,-,N/A,,Clear,200,2012-02-10 12:53:00
8:53 AM,34.0,21.0,59,30.11,10.0,SW,11.5,-,N/A,,Clear,220,2012-02-10 13:53:00
9:53 AM,37.0,21.0,52,30.10,10.0,SW,9.2,-,N/A,,Clear,230,2012-02-10 14:53:00
10:53 AM,39.0,19.9,46,30.08,10.0,Variable,6.9,-,N/A,,Clear,0,2012-02-10 15:53:00
11:53 AM,41.0,19.9,43,30.05,10.0,WSW,11.5,-,N/A,,Clear,240,2012-02-10 16:53:00
12:53 PM,44.1,19.9,38,30.01,10.0,SW,10.4,16.1,N/A,,Clear,230,2012-02-10 17:53:00
1:53 PM,44.1,19.9,38,29.98,10.0,SSW,10.4,-,N/A,,Clear,210,2012-02-10 18:53:00
2:53 PM,45.0,19.0,36,29.95,10.0,WSW,11.5,-,N/A,,Clear,240,2012-02-10 19:53:00
3:53 PM,44.1,19.9,38,29.94,10.0,WSW,10.4,-,N/A,,Clear,240,2012-02-10 20:53:00
4:53 PM,42.1,19.9,41,29.94,10.0,WSW,6.9,-,N/A,,Scattered Clouds,240,2012-02-10 21:53:00
5:53 PM,39.9,19.9,45,29.96,10.0,SW,9.2,-,N/A,,Clear,230,2012-02-10 22:53:00
6:53 PM,39.9,19.9,45,29.95,10.0,Calm,Calm,-,N/A,,Partly Cloudy,0,2012-02-10 23:53:00
7:53 PM,39.0,19.9,46,29.94,10.0,SSW,5.8,-,N/A,,Overcast,210,2012-02-11 00:53:00
8:53 PM,37.9,21.0,51,29.92,10.0,WSW,8.1,-,N/A,,Overcast,240,2012-02-11 01:53:00
9:53 PM,37.9,21.0,51,29.91,10.0,SW,4.6,-,N/A,,Overcast,220,2012-02-11 02:53:00
10:53 PM,37.9,21.0,51,29.91,10.0,SW,4.6,-,N/A,,Mostly Cloudy,230,2012-02-11 03:53:00
11:53 PM,37.0,21.9,54,29.90,10.0,SSW,3.5,-,N/A,,Overcast,210,2012-02-11 04:53:00